Oxford, CT

11:36 PM EDT on April 21, 2018 (GMT -0400)
Waterbury-Oxford

Weather History for KOXC - September, 2013

Change the Weather History Date:

Monday, September 30, 2013

  Actual Average Record
Temperature  
Mean Temperature 56 °F -  
Max Temperature 69 °F 62 °F 75 °F (2015)
Min Temperature 42 °F 44 °F 32 °F (2000)
Degree Days  
Heating Degree Days 10    
Growing Degree Days 6 (Base 50)    
Moisture  
Dew Point 45 °F    
Average Humidity 78    
Maximum Humidity 87    
Minimum Humidity 52    
Precipitation  
Precipitation 0.00 in - - ()
Sea Level Pressure  
Sea Level Pressure 30.06 in    
Wind  
Wind Speed 1 mph (ENE)    
Max Wind Speed 6 mph    
Max Gust Speed -    
Visibility 10 miles    
Events      
Averages and records for this station are not official NWS values.
T = Trace of Precipitation, MM = Missing Value Source: NWS Daily Summary

Daily Weather History Graph

Daily Weather History Graph

Search for Another Location

Airport or City:

Astronomy

Sep. 30, 2013 Rise Set
Actual Time 6:48 AM EDT 6:35 PM EDT
Civil Twilight 6:20 AM EDT 7:03 PM EDT
Nautical Twilight 5:48 AM EDT 7:35 PM EDT
Astronomical Twilight 5:16 AM EDT 8:07 PM EDT
Moon 2:20 AM EDT (9/30) 4:07 PM EDT (9/30)
Length of Visible Light 12h 42m
Length of Day
11h 47m
Waning Crescent, 19% of the Moon is Illuminated
Sep 30
Waning Crescent
Oct 4
New
Oct 11
First Quarter
Oct 18
Full
Oct 26
Last Quarter

Hourly Weather History & Observations

Time (EDT) Temp. Windchill Dew Point Humidity Pressure Visibility Wind Dir Wind Speed Gust Speed Precip Events Conditions
12:15 AM 46.4 °F - 42.8 °F 87% 30.12 in 10.0 mi Calm Calm - N/A   Clear
12:35 AM 46.4 °F - 42.8 °F 87% 30.11 in 10.0 mi Calm Calm - N/A   Clear
12:55 AM 48.2 °F - 44.6 °F 87% 30.10 in 10.0 mi Calm Calm - N/A   Clear
1:15 AM 46.4 °F - 42.8 °F 87% 30.10 in 10.0 mi Calm Calm - N/A   Clear
1:35 AM 46.4 °F - 42.8 °F 87% 30.11 in 10.0 mi Calm Calm - N/A   Clear
1:55 AM 46.4 °F - 42.8 °F 87% 30.10 in 10.0 mi Calm Calm - N/A   Clear
2:15 AM 46.4 °F - 41.0 °F 81% 30.10 in 10.0 mi Calm Calm - N/A   Clear
2:35 AM 46.4 °F - 42.8 °F 87% 30.10 in 10.0 mi Calm Calm - N/A   Clear
2:55 AM 46.4 °F - 42.8 °F 87% 30.10 in 10.0 mi Calm Calm - N/A   Clear
3:15 AM 46.4 °F 44.3 °F 41.0 °F 81% 30.10 in 10.0 mi NNW 4.6 mph - N/A   Clear
3:35 AM 46.4 °F 45.2 °F 42.8 °F 87% 30.09 in 10.0 mi NNE 3.5 mph - N/A   Clear
3:55 AM 46.4 °F - 41.0 °F 81% 30.09 in 10.0 mi Calm Calm - N/A   Clear
4:15 AM 46.4 °F - 41.0 °F 81% 30.09 in 10.0 mi Calm Calm - N/A   Clear
4:35 AM 46.4 °F - 42.8 °F 87% 30.09 in 10.0 mi Calm Calm - N/A   Clear
4:55 AM 42.8 °F 40.1 °F 37.4 °F 81% 30.08 in 10.0 mi East 4.6 mph - N/A   Clear
5:15 AM 46.4 °F - 42.8 °F 87% 30.09 in 10.0 mi Calm Calm - N/A   Clear
5:35 AM 44.6 °F - 41.0 °F 87% 30.09 in 10.0 mi Calm Calm - N/A   Clear
5:50 AM 44.6 °F 42.2 °F 41.0 °F 87% 30.09 in 10.0 mi ESE 4.6 mph - N/A   Clear
6:45 AM 44.6 °F - 39.2 °F 81% 30.10 in 10.0 mi Calm Calm - N/A   Clear
7:45 AM 46.4 °F - 42.8 °F 87% 30.11 in 10.0 mi Calm Calm - N/A   Clear
8:45 AM 53.6 °F - 46.4 °F 77% 30.10 in 10.0 mi North 5.8 mph - N/A   Clear
9:45 AM 59.0 °F - 48.2 °F 67% 30.08 in 10.0 mi NE 4.6 mph - N/A   Clear
10:45 AM 62.6 °F - 50.0 °F 63% 30.08 in 10.0 mi ESE 5.8 mph - N/A   Clear
11:45 AM 64.4 °F - 48.2 °F 56% 30.05 in 10.0 mi SE 5.8 mph - N/A   Partly Cloudy
12:45 PM 66.2 °F - 48.2 °F 52% 30.04 in 10.0 mi SE 4.6 mph - N/A   Scattered Clouds
1:45 PM 66.2 °F - 50.0 °F 56% 30.03 in 10.0 mi Calm Calm - N/A   Mostly Cloudy
2:45 PM 68.0 °F - 50.0 °F 52% 30.01 in 10.0 mi Variable 4.6 mph - N/A   Scattered Clouds
3:45 PM 68.0 °F - 50.0 °F 52% 30.01 in 10.0 mi Variable 4.6 mph - N/A   Scattered Clouds
4:45 PM 69.8 °F - 51.8 °F 53% 30.00 in 10.0 mi Variable 4.6 mph - N/A   Partly Cloudy
5:45 PM 68.0 °F - 57.2 °F 68% 29.99 in 10.0 mi Variable 4.6 mph - N/A   Partly Cloudy
6:45 PM 62.6 °F - 51.8 °F 68% 29.99 in 10.0 mi Calm Calm - N/A   Clear
7:45 PM 57.2 °F - 50.0 °F 77% 30.00 in 10.0 mi Calm Calm - N/A   Clear
8:55 PM 53.6 °F - 48.2 °F 82% 30.01 in 10.0 mi Calm Calm - N/A   Clear
9:15 PM 53.6 °F - 46.4 °F 77% 30.01 in 10.0 mi Calm Calm - N/A   Clear
9:35 PM 51.8 °F - 46.4 °F 82% 30.02 in 10.0 mi Calm Calm - N/A   Clear
9:55 PM 53.6 °F - 48.2 °F 82% 30.01 in 10.0 mi Calm Calm - N/A   Clear
10:15 PM 53.6 °F - 48.2 °F 82% 30.02 in 10.0 mi Calm Calm - N/A   Clear
10:35 PM 51.8 °F - 46.4 °F 82% 30.01 in 10.0 mi Calm Calm - N/A   Clear
10:55 PM 51.8 °F - 46.4 °F 82% 30.01 in 10.0 mi Calm Calm - N/A   Clear
11:15 PM 51.8 °F - 46.4 °F 82% 30.01 in 10.0 mi Calm Calm - N/A   Clear
11:35 PM 51.8 °F - 46.4 °F 82% 30.01 in 10.0 mi Calm Calm - N/A   Clear
11:55 PM 51.8 °F - 46.4 °F 82% 30.01 in 10.0 mi Calm Calm - N/A   Clear